Regional Weather Roundup
Issued by NWS Newport/Morehead, NC

Home | Current Version | Previous Version | Text Only | Print | Product List | Glossary On
Versions: 1 2 3 4 5 6 7 8 9 10 11 12 13 14 15 16 17 18 19 20 21 22 23 24 25 26 27 28 29 30 31 32 33 34 35 36 37 38 39 40 41 42 43 44 45 46 47 48 49 50
000
ASUS42 KMHX 040928
RWRMHX
WEATHER ROUNDUP FOR EASTERN NORTH CAROLINA
NATIONAL WEATHER SERVICE NEWPORT/MOREHEAD CITY NC
400 AM EST WED MAR 04 2015

NOTE: "FAIR" INDICATES FEW OR NO CLOUDS BELOW 12,000 FEET
WITH NO SIGNIFICANT WEATHER AND/OR OBSTRUCTIONS TO VISIBILITY

NCZ015>017-031-032-045>047-102-103-041000-
NORTH COAST

CITY           SKY/WX    TMP DP  RH WIND       PRES   REMARKS
EDENTON        FOG       45  44  99 SW7       29.99F VSB 1/4
ELIZABETH CITY FOG       49  48  97 SW9       29.98F VSB 1/2
KITTY HAWK     CLOUDY    60  60 100 SW13G21   29.97F FOG
MANTEO         FOG       57  57 100 SW21G26   29.99S VSB 3/4

$$

NCZ045>047-081-094-103-104-041000-
CENTRAL COAST

CITY           SKY/WX    TMP DP  RH WIND       PRES   REMARKS
FRISCO         FOG       54  54 100 SW12      30.02F VSB 1/4
SWANQUARTER      N/A     55 N/A N/A SW10G18   29.97S

$$

NCZ095-097-098-100-101-041000-
SOUTHERN COAST

CITY           SKY/WX    TMP DP  RH WIND       PRES   REMARKS
BEAUFORT       FOG       52  52 100 SW10      30.05F VSB 3/4
CEDAR ISLAND     N/A     61 N/A N/A SW8G17    30.06S
JACKSONVILLE   FOG       57  56  96 SW12      30.04S VSB 1/8
PINEY ISLAND     N/A    N/A N/A N/A MISG      30.03F
WILMINGTON     FOG       52  52 100 SW8       30.06F VSB 1/2


$$

NCZ011>013-027>030-043-044-078>080-089-090>093-098-041000-
COASTAL PLAIN

CITY           SKY/WX    TMP DP  RH WIND       PRES   REMARKS
AHOSKIE        FOG       41  40  98 S5        29.98F VSB 1/2
CLINTON        FOG       41  41 100 CALM      30.04F VSB 1/4
ELIZABETHTOWN  FOG       45  45 100 S7        30.05S VSB 1/4
GOLDSBORO      FOG       42  42 100 S6        30.00F VSB 1/4
GREENVILLE     FOG       43  43 100 SW6       30.03F VSB 3/4
HAVELOCK       CLOUDY    62  61  96 SW14G24   30.04F
KENANSVILLE    FOG       45  45 100 SW5       30.04F VSB 1/2
KINSTON        FOG       44  44 100 SW8       30.03F VSB 1/2
NEW BERN       CLOUDY    58  57  97 SW10G20   30.03F
RICHLANDS      CLOUDY    50  48  93 SW9       30.04F VSB 1/2
ROCKY MOUNT    FOG       42  41  96 SW7       30.01S VSB 1/2
WASHINGTON     FOG       45  45  98 SW6       30.02F VSB 1/4
WHITEVILLE     FOG       47  46  97 SW5       30.06S VSB 1/4

$$

AMZ130-135-150-152-154-156-158-170-250-252-270-ANZ085-086-088-633-658-670-041000-
MARINE OBSERVATIONS

STATION/POSITION TIME  TEMP    WIND        PRES    WAVE   SWELL
                       AIR SEA DIR/SP/G            HT/PER HT/PER
                 (UTC) (F)     (DEG/KT/KT) (MB)    (FT/S) (FT/S)
CHESAPEAKE LIGHT 0900   43     230/ 24/ 25 1013.8
64 E VA BEACH    0850   57 56  210/ 21/ 25 1013.2    6/ 7   2/13
DUCK             0900   54 35  210/ 12/ 15 1014.0
2 E DUCK         0911      35                N/A     4/ 7
10 NE DUCK       0822      37                N/A     5/ 6
OREGON INLET     0900   50 42  210/ 16/ 19 1015.7
HATTERAS CG      0900   56 44  210/ 11/ 14 1016.8
CAPE LOOKOUT     0900   58     220/ 10/ 12 1017.7
BEAUFORT LAB     0900   50 45  210/  5/  7 1016.6
27 SE WRIGHTSVLE NOT AVBL
5 SE WRIGHTSVLE  NOT AVBL
225 S CAPE HAT   0850   70 72  200/ 17/ 21 1021.7    6/10   3/10
41 SE CHARLESTON 0850   70 68  200/ 12/ 12 1018.4    4/ 9   3/ 9

$$



USA.gov is the U.S. government's official web portal to all federal, state and local government web resources and services.